When you browse on this site, cookies collect data to enhance your experience and personalize the content and advertising you see.
Visit our Privacy Policy to learn more. By continuing to use the site, you agree to this use of cookies and data.
  • In Portugal
  • List of Countries
  • For 7 days
  • Water Temperature
  • Satellite Maps
  • Weather Map
  • Weather Widgets
  • user-avatar
    Login

    Hourly Weather Avgury

    Today, 26 June, Wednesday

    Time Temperature Precipitation Wind Pressure Humidity
    00:00 +13°C° 0 mm 2 mps 754 mmHg 84%
    01:00 +12°C° 0 mm 2 mps 754 mmHg 87%
    02:00 +12°C° 0 mm 2 mps 754 mmHg 89%
    03:00 +10°C° 0 mm 2 mps 754 mmHg 91%
    04:00 +12°C° 0 mm 2 mps 754 mmHg 88%
    05:00 +13°C° 0 mm 2 mps 754 mmHg 85%
    06:00 +12°C° 0 mm 3 mps 754 mmHg 82%
    07:00 +14°C° 0 mm 3 mps 754 mmHg 75%
    08:00 +16°C° 0 mm 3 mps 754 mmHg 67%
    09:00 +18°C° 0 mm 4 mps 754 mmHg 59%
    10:00 +19°C° 0 mm 4 mps 754 mmHg 56%
    11:00 +19°C° 0 mm 4 mps 753 mmHg 53%
    12:00 +20°C° 0 mm 4 mps 753 mmHg 50%
    13:00 +20°C° 0 mm 3 mps 753 mmHg 49%
    14:00 +20°C° 0 mm 3 mps 752 mmHg 48%
    15:00 +20°C° 0 mm 2 mps 752 mmHg 47%
    16:00 +20°C° 0 mm 2 mps 752 mmHg 52%
    17:00 +20°C° 0 mm 2 mps 751 mmHg 57%
    18:00 +19°C° 0 mm 2 mps 750 mmHg 63%
    19:00 +18°C° 0.1 mm 2 mps 750 mmHg 67%
    20:00 +17°C° 0.1 mm 2 mps 749 mmHg 71%
    21:00 +16°C° 0.1 mm 1 mps 749 mmHg 75%
    22:00 +15°C° 1.5 mm 1 mps 748 mmHg 82%
    23:00 +14°C° 1.5 mm 1 mps 747 mmHg 89%

    Tomorrow, 27 June, Thursday

    Time Temperature Precipitation Wind Pressure Humidity
    00:00 +13°C° 1.5 mm 1 mps 747 mmHg 96%
    01:00 +13°C° 2.8 mm 1 mps 746 mmHg 97%
    02:00 +13°C° 2.8 mm 1 mps 746 mmHg 97%
    03:00 +14°C° 2.8 mm 1 mps 745 mmHg 98%
    04:00 +14°C° 0.3 mm 2 mps 745 mmHg 97%
    05:00 +14°C° 0.3 mm 2 mps 745 mmHg 97%
    06:00 +13°C° 0.3 mm 3 mps 744 mmHg 96%
    07:00 +14°C° 0 mm 3 mps 744 mmHg 90%
    08:00 +16°C° 0 mm 3 mps 744 mmHg 84%
    09:00 +17°C° 0 mm 3 mps 744 mmHg 78%
    10:00 +18°C° 0 mm 2 mps 744 mmHg 73%
    11:00 +19°C° 0 mm 2 mps 743 mmHg 69%
    12:00 +20°C° 0 mm 2 mps 743 mmHg 64%
    13:00 +20°C° 0 mm 2 mps 743 mmHg 62%
    14:00 +20°C° 0 mm 2 mps 743 mmHg 60%
    15:00 +21°C° 0 mm 2 mps 742 mmHg 58%
    16:00 +20°C° 0 mm 2 mps 742 mmHg 62%
    17:00 +20°C° 0 mm 2 mps 741 mmHg 66%
    18:00 +19°C° 0 mm 2 mps 741 mmHg 70%
    19:00 +18°C° 0 mm 3 mps 740 mmHg 72%
    20:00 +17°C° 0 mm 4 mps 740 mmHg 75%
    21:00 +15°C° 0 mm 4 mps 739 mmHg 78%
    22:00 +15°C° 0.1 mm 5 mps 739 mmHg 80%
    23:00 +15°C° 0.1 mm 6 mps 738 mmHg 82%

    Day after tomorrow, 28 June, Friday

    Time Temperature Precipitation Wind Pressure Humidity
    00:00 +14°C° 0.1 mm 6 mps 737 mmHg 84%
    01:00 +12°C° 3 mm 7 mps 736 mmHg 88%
    02:00 +12°C° 3 mm 8 mps 735 mmHg 92%
    03:00 +11°C° 3 mm 9 mps 735 mmHg 96%
    04:00 +11°C° 3.1 mm 9 mps 734 mmHg 96%
    05:00 +12°C° 3.1 mm 8 mps 733 mmHg 97%
    06:00 +12°C° 3.1 mm 8 mps 732 mmHg 97%
    07:00 +13°C° 3.1 mm 8 mps 732 mmHg 97%
    08:00 +15°C° 3.1 mm 8 mps 731 mmHg 97%
    09:00 +15°C° 3.1 mm 7 mps 731 mmHg 97%
    10:00 +16°C° 0.4 mm 7 mps 731 mmHg 95%
    11:00 +17°C° 0.4 mm 7 mps 731 mmHg 94%
    12:00 +19°C° 0.4 mm 6 mps 730 mmHg 92%
    13:00 +20°C° 0.4 mm 7 mps 730 mmHg 90%
    14:00 +20°C° 0.4 mm 7 mps 730 mmHg 89%
    15:00 +20°C° 0.4 mm 7 mps 730 mmHg 88%
    16:00 +20°C° 0.5 mm 6 mps 730 mmHg 88%
    17:00 +20°C° 0.5 mm 5 mps 730 mmHg 88%
    18:00 +20°C° 0.5 mm 5 mps 730 mmHg 88%
    19:00 +19°C° 0 mm 4 mps 731 mmHg 90%
    20:00 +17°C° 0 mm 4 mps 731 mmHg 91%
    21:00 +16°C° 0 mm 3 mps 731 mmHg 93%
    22:00 +14°C° 0 mm 3 mps 731 mmHg 93%
    23:00 +13°C° 0 mm 3 mps 731 mmHg 94%

    29 June, Saturday

    Time Temperature Precipitation Wind Pressure Humidity
    00:00 +13°C° 0 mm 3 mps 731 mmHg 95%
    01:00 +12°C° 0 mm 4 mps 731 mmHg 95%
    02:00 +12°C° 0 mm 4 mps 731 mmHg 96%
    03:00 +12°C° 0 mm 4 mps 731 mmHg 96%
    04:00 +12°C° 0 mm 5 mps 731 mmHg 94%
    05:00 +11°C° 0 mm 6 mps 731 mmHg 92%
    06:00 +11°C° 0 mm 7 mps 731 mmHg 90%
    07:00 +11°C° 0 mm 7 mps 732 mmHg 87%
    08:00 +13°C° 0 mm 6 mps 732 mmHg 85%
    09:00 +13°C° 0 mm 6 mps 732 mmHg 82%
    10:00 +12°C° 0 mm 7 mps 733 mmHg 81%
    11:00 +14°C° 0 mm 7 mps 734 mmHg 79%
    12:00 +14°C° 0 mm 7 mps 734 mmHg 78%
    13:00 +15°C° 0.1 mm 6 mps 735 mmHg 75%
    14:00 +16°C° 0.1 mm 6 mps 735 mmHg 73%
    15:00 +16°C° 0.1 mm 6 mps 736 mmHg 71%
    16:00 +16°C° 0.2 mm 5 mps 736 mmHg 74%
    17:00 +16°C° 0.2 mm 5 mps 736 mmHg 76%
    18:00 +17°C° 0.2 mm 4 mps 737 mmHg 78%
    19:00 +14°C° 0 mm 4 mps 737 mmHg 83%
    20:00 +13°C° 0 mm 3 mps 737 mmHg 88%
    21:00 +12°C° 0 mm 2 mps 738 mmHg 93%
    22:00 +12°C° 0 mm 2 mps 738 mmHg 94%
    23:00 +10°C° 0 mm 2 mps 738 mmHg 95%

    30 June, Sunday

    Time Temperature Precipitation Wind Pressure Humidity
    00:00 +9°C° 0 mm 2 mps 739 mmHg 96%
    01:00 +9°C° 0 mm 2 mps 739 mmHg 97%
    02:00 +8°C° 0 mm 2 mps 739 mmHg 97%
    03:00 +8°C° 0 mm 2 mps 739 mmHg 97%
    04:00 +9°C° 0 mm 2 mps 740 mmHg 96%
    05:00 +9°C° 0 mm 2 mps 740 mmHg 95%
    06:00 +10°C° 0 mm 2 mps 740 mmHg 94%
    07:00 +12°C° 0 mm 2 mps 740 mmHg 87%
    08:00 +13°C° 0 mm 3 mps 741 mmHg 80%
    09:00 +14°C° 0 mm 3 mps 741 mmHg 74%
    10:00 +16°C° 0 mm 3 mps 741 mmHg 72%
    11:00 +16°C° 0 mm 3 mps 742 mmHg 70%
    12:00 +15°C° 0 mm 4 mps 742 mmHg 68%
    13:00 +17°C° 0 mm 3 mps 742 mmHg 68%
    14:00 +17°C° 0 mm 3 mps 742 mmHg 68%
    15:00 +17°C° 0 mm 3 mps 742 mmHg 67%
    16:00 +16°C° 0 mm 2 mps 743 mmHg 68%
    17:00 +16°C° 0 mm 2 mps 743 mmHg 69%
    18:00 +16°C° 0 mm 2 mps 743 mmHg 70%
    19:00 +14°C° 0 mm 1 mps 744 mmHg 76%
    20:00 +13°C° 0 mm 1 mps 744 mmHg 82%
    21:00 +10°C° 0 mm 0 mps 744 mmHg 88%
    22:00 +10°C° 0 mm 0 mps 745 mmHg 88%
    23:00 +9°C° 0 mm 0 mps 745 mmHg 89%

    1 July, Monday

    Time Temperature Precipitation Wind Pressure Humidity
    00:00 +9°C° 0 mm 0 mps 745 mmHg 90%
    01:00 +10°C° 0 mm 1 mps 745 mmHg 91%
    02:00 +9°C° 0 mm 1 mps 746 mmHg 92%
    03:00 +9°C° 0 mm 1 mps 746 mmHg 93%
    04:00 +10°C° 0 mm 1 mps 746 mmHg 91%
    05:00 +11°C° 0 mm 1 mps 746 mmHg 88%
    06:00 +12°C° 0 mm 1 mps 746 mmHg 86%
    07:00 +14°C° 0 mm 1 mps 746 mmHg 80%
    08:00 +16°C° 0 mm 1 mps 746 mmHg 73%
    09:00 +17°C° 0 mm 2 mps 746 mmHg 66%
    10:00 +18°C° 0 mm 2 mps 746 mmHg 63%
    11:00 +19°C° 0 mm 2 mps 746 mmHg 60%
    12:00 +20°C° 0 mm 2 mps 746 mmHg 57%
    13:00 +21°C° 0 mm 2 mps 745 mmHg 57%
    14:00 +21°C° 0 mm 2 mps 745 mmHg 58%
    15:00 +21°C° 0 mm 3 mps 745 mmHg 58%
    16:00 +20°C° 0 mm 2 mps 744 mmHg 65%
    17:00 +19°C° 0 mm 2 mps 744 mmHg 73%
    18:00 +18°C° 0 mm 2 mps 744 mmHg 80%
    19:00 +17°C° 0.3 mm 2 mps 744 mmHg 83%
    20:00 +16°C° 0.3 mm 2 mps 744 mmHg 86%
    21:00 +16°C° 0.3 mm 2 mps 743 mmHg 89%
    22:00 +14°C° 0.9 mm 3 mps 743 mmHg 92%
    23:00 +14°C° 0.9 mm 3 mps 743 mmHg 94%
    Show more